sat.trackr.live / text

‹ back to catalog

SHIJIAN-28 (SJ-28)

NORAD 66549 · 2025-277A

PAYLOAD ACTIVE UNKNOWN

§ Identity

Operator
Country
PRC
Launch date
2025-11-30
Launch site
WSC
Launch vehicle
Mass (kg)
RCS (m²)

Purposes: comms

External: N2YO · Heavens-Above · Gunter

§ Orbital elements

Epoch: 2026-09-20T00:22:08.755968Z

Period
1,436.05 min
Inclination
4.3012°
Eccentricity
0.0001274
Mean motion
1.00275127 rev/d
Perigee alt
35,780.3 km
Apogee alt
35,791.0 km
Semi-major
42,163.8 km
B*
0.0000e+0
RAAN
270.6676°
Arg perigee
94.8818°
Mean anomaly
115.7718°
Rev number
310

§ Raw data

SHIJIAN-28 (SJ-28)1 66549U 25277A   26263.01537912 -.00000369  00000+0  00000+0 0  99972 66549   4.3012 270.6676 0001274  94.8818 115.7718  1.00275127  3107

JSON: /api/v1/satellites/66549 · /tle

For live sub-satellite position, see the globe view (requires WebGL).

§ Visibility from observer

Set your observer location to see the next 7 days of passes ≥ 10°. The values pass through the URL so the page stays shareable.

No JS? Fill the form by hand. The geolocation button needs JavaScript.